Home > Weather > Amersfoort > Past weeks

Flag for Netherlands Past Weather in Amersfoort, Netherlands — Yesterday and Last 2 Weeks

Now
61 °F

Fog.


Feels Like: 61 °F
Forecast: 59 / 73 °F
Wind: 8 mph from Northeast

Location: Deelen

Current Time: May 31, 2016 at 2:09:48 AM

Latest Report: May 31, 2016 at 1:25 AM


Visibility: 3 mi

Pressure: 29.65 "Hg

Humidity: 100%

Dew Point: 61 °F

Location of AmersfoortLocation

Past Weather in Amersfoort — Graph

°F

Amersfoort Temperature Yesterday

Maximum temperature yesterday: 72 °F (at 2:25 PM)
Minimum temperature yesterday: 59 °F (at 3:55 AM)
Average temperature yesterday: 63 °F

High & Low Weather Summary for the Past Weeks

 TemperatureHumidityPressure
High75 °F (May 21, 5:25 PM)100% (May 16, 3:55 AM)30.12 "Hg (May 16, 3:55 AM)
Low34 °F (May 16, 3:55 AM)41% (May 21, 6:25 PM)29.59 "Hg (May 30, 4:25 PM)
Average57 °F81%29.91 "Hg
* Reported May 16 12:25 AM — May 31 12:25 AM, Amersfoort, Weather by CustomWeather, © 2016

Note: Actual official high and low records may vary slightly from our data, if they occured in-between our weather recording intervals... More about our weather records

Advertising

Amersfoort Weather History for the Previous 24 Hours

Scroll right to see more
 ConditionsComfort  
Time TempWeatherWind HumidityBarometerVisibility
12:25 AM
Tue, May 31
63 °FFog.8 mph94%29.65 "Hg5 mi
11:55 PM
Mon, May 30
63 °FFog.8 mph94%29.65 "Hg4 mi
11:25 PM61 °FFog.6 mph100%29.65 "Hg5 mi
10:55 PM61 °FFog.3 mph100%29.62 "Hg3 mi
10:25 PM63 °FPartly sunny.3 mph94%29.62 "HgN/A
9:55 PM63 °FLight rain. Broken clouds.9 mph94%29.62 "HgN/A
9:25 PM63 °FThunderstorms. Cloudy.6 mph94%29.65 "HgN/A
8:55 PM63 °FThunderstorms. Mostly cloudy.12 mph94%29.65 "HgN/A
8:25 PM61 °FThunderstorms. Broken clouds.12 mph94%29.65 "Hg3 mi
7:55 PM64 °FThunderstorms. Broken clouds.7 mph94%29.62 "HgN/A
6:55 PM63 °FThunderstorms. Broken clouds.13 mph94%29.62 "HgN/A
6:25 PM61 °FStrong thunderstorms. Partly sunny.17 mph100%29.62 "Hg3 mi
5:55 PM64 °FStrong thunderstorms. Partly sunny.14 mph94%29.62 "Hg1 mi
5:25 PM70 °FThunderstorms. Broken clouds.12 mph83%29.59 "HgN/A
4:55 PM72 °FThunderstorms. Broken clouds.14 mph73%29.59 "HgN/A
4:25 PM72 °FThunderstorms. Cloudy.14 mph73%29.59 "HgN/A
3:55 PM72 °FMostly cloudy.13 mph73%29.62 "HgN/A
3:25 PM72 °FScattered clouds.14 mph73%29.62 "HgN/A
2:55 PM70 °FPartly sunny.15 mph78%29.62 "HgN/A
2:25 PM72 °FMostly cloudy.12 mph73%29.65 "HgN/A
1:55 PM70 °FPartly sunny.15 mph78%29.65 "HgN/A
12:55 PM64 °FFog.14 mph88%29.65 "Hg6 mi
12:25 PM64 °FFog.13 mph88%29.68 "Hg6 mi
11:55 AM63 °FFog.12 mph88%29.68 "Hg5 mi
11:25 AM63 °FFog.15 mph88%29.68 "Hg4 mi
10:55 AM61 °FFog.14 mph94%29.68 "Hg4 mi
10:25 AM61 °FFog.13 mph94%29.68 "Hg3 mi
9:55 AM59 °FFog.14 mph100%29.68 "Hg2 mi
9:25 AM59 °FFog.15 mph100%29.68 "Hg2 mi
8:55 AM59 °FFog.14 mph100%29.68 "Hg2 mi
7:55 AM59 °FFog.9 mph100%29.71 "Hg3 mi
6:55 AM59 °FFog.12 mph100%29.68 "Hg3 mi
6:25 AM59 °FFog.9 mph100%29.68 "Hg3 mi
5:55 AM59 °FFog.10 mph100%29.68 "Hg2 mi
5:25 AM59 °FFog.13 mph94%29.71 "Hg2 mi
4:55 AM59 °FFog.12 mph100%29.71 "Hg2 mi
4:25 AM59 °FFog.9 mph100%29.74 "Hg2 mi
3:55 AM59 °FFog.9 mph100%29.71 "Hg2 mi
3:25 AM61 °FFog.10 mph94%29.71 "Hg2 mi
2:55 AM61 °FFog.10 mph94%29.74 "Hg2 mi
2:25 AM61 °FFog.9 mph94%29.74 "Hg2 mi
Weather by CustomWeather, © 2016

See weather overviewHow to use our weather pages